Location: Coopersdale
(40.3556°N, 78.9372°W)
Time: 19:59:21
(UTC+00:00)

Transit 4A - Pass Details

Date: 21 January 2021
Orbit: 866 x 978 km, 66.8° (Epoch: 26 February)

Event Time Altitude Azimuth Distance (km) Brightness Sun altitude
Rises 01:42:14 0° 229° (SW) 3,659 11.5 -38.2°
Reaches altitude 10° 01:44:55 10° 235° (SW) 2,720 10.8 -38.7°
Enters shadow 01:49:03 35° 266° (W) 1,534 9.3 -39.5°
Maximum altitude 01:50:58 44° 307° (NW) 1,334 - -39.9°
Drops below altitude 10° 01:57:02 10° 18° (NNE) 2,722 - -41.0°
Sets 01:59:45 0° 25° (NNE) 3,662 - -41.5°
